Location: Lecco
(45.8566°N, 9.3977°E)
Time: 23:31:14
(UTC+02:00)

ISS - Pass Details

Date: 15 July 2018
Orbit: 402 x 408 km, 51.6° (Epoch: 16 July)

Event Time Altitude Azimuth Distance (km) Brightness Sun altitude
Exits shadow 01:49:53 46° 38° (NE) 560 -2.8 -22.4°
Drops below altitude 10° 01:52:22 10° 59° (ENE) 1,470 -0.5 -22.4°
Sets 01:54:29 0° 62° (ENE) 2,333 0.5 -22.3°
